Flag for Papua New Guinea Weather past 2 weeks in Lae, Papua New Guinea

Now
88 °F

Partly sunny.


Feels Like: 100 °F
Forecast: 71 / 90 °F
Wind: 7 mph from Southwest

Location: Moresby


UV Index: 7 (High)

Visibility: N/A


Pressure: 29.68 "Hg

Humidity: 70%

Dew point: 77 °F

Location of LaeLocation

Historic Weather in Lae

°F

Lae temperature yesterday

Maximum temperature yesterday: 86 °F (at 2:00 PM)
Minimum temperature yesterday: 75 °F (at 2:00 AM)
Average temperature yesterday: 79 °F

Past Weeks' High & Low Weather Summary

 TemperatureHumidityPressure
High90 °F (Apr 5, 12:00 PM)100% (Apr 10, 12:00 AM)29.89 "Hg (Apr 10, 12:00 AM)
Low64 °F (Apr 15, 12:00 PM)59% (Apr 6, 11:00 AM)29.65 "Hg (Apr 8, 3:00 PM)
Average80 °F86%29.75 "Hg
* Reported Apr 4 1:00 PM — Apr 19 1:00 PM, Lae, Weather by CustomWeather, © 2014

Note: Actual official high and low records may vary slightly from our data, if they occured in-between our weather recording intervals... More about our weather records

Advertising

Historic Weather Conditions — Data for Previous 24 hours

 ConditionsComfort  
Time TempWeatherWind HumidityBarometerVisibility
1:00 PM
Apr 19
84 °FPartly sunny.5 mph79%29.74 "HgN/A
12:00 PM82 °FMostly cloudy.3 mph79%29.77 "HgN/A
11:00 AM84 °FMostly cloudy.3 mph74%29.80 "HgN/A
10:01 AM82 °FBroken clouds.5 mph89%29.83 "HgN/A
9:00 AM79 °FBroken clouds.No wind94%29.80 "HgN/A
8:00 AM79 °FBroken clouds.No wind89%29.80 "HgN/A
7:00 AM75 °FPartly sunny.No wind100%29.77 "HgN/A
6:00 AM75 °FPassing clouds.No wind94%29.77 "HgN/A
5:00 AM75 °FPartly cloudy.No wind100%29.77 "HgN/A
4:00 AM75 °FPartly cloudy.No wind100%29.74 "HgN/A
3:00 AM75 °FPassing clouds.No wind94%29.77 "HgN/A
2:00 AM75 °FPartly cloudy.No wind94%29.77 "HgN/A
1:00 AM75 °FPassing clouds.No wind94%29.80 "HgN/A
12:00 AM75 °FPassing clouds.No wind94%29.80 "HgN/A
11:00 PM
Apr 18
75 °FPartly cloudy.No wind94%29.80 "HgN/A
10:00 PM75 °FMostly cloudy.No wind94%29.83 "HgN/A
9:00 PM75 °FMostly cloudy.2 mph100%29.83 "HgN/A
8:00 PM77 °FMostly cloudy.2 mph94%29.80 "HgN/A
7:00 PM77 °FRain showers. Mostly cloudy.3 mph94%29.77 "HgN/A
6:00 PM79 °FThunderstorms. Mostly cloudy.7 mph84%29.77 "HgN/A
5:00 PM82 °FMostly cloudy.7 mph84%29.74 "HgN/A
4:00 PM82 °FOvercast.6 mph84%29.71 "HgN/A
Weather by CustomWeather, © 2014

See weather overview